Location: Recife
(8.0585°S, 34.8848°W)
Time: 13:24:00
(UTC-03:00)

Vanguard 2 - Pass Details

Date: 20 April 2026
Orbit: 553 x 2895 km, 32.9° (Epoch: 13 May)

Event Time Altitude Azimuth Distance (km) Brightness Sun altitude
Rises 17:58:52 0° 308° (NW) 3,968 12.4 -11.5°
Reaches altitude 10° 18:01:09 10° 309° (NW) 3,247 11.8 -12.0°
Maximum altitude 18:09:42 83° 36° (NE) 1,803 9.3 -14.1°
Enters shadow 18:21:33 17° 122° (ESE) 4,510 10.9 -17.0°
